This demonstration page uses our WeatherBlox Daily Observations layout. Learn more.

Left ArrowRight Arrow

39.12711, -84.51439

Hourly Observations for January 10, 2018

Temp ( °F °C ) Dew Point ( °F °C ) Humidity (%) Winds ( mph kmh ) Pressure ( in mb ) Visibility ( mi km ) Precip ( " mm )
12:53 am 00:53 Cloudy with Mist and Fog 34 1.1 33 0.6 97 97 N N/A 30.25 1025 6 10 N/A
1:13 am 01:13 Cloudy with Mist and Fog 35 1.7 33 0.6 93 93 NNE 3 6 30.27 1025 6 10 N/A
1:53 am 01:53 Cloudy with Mist and Fog 35 1.7 34 1.1 96 96 N N/A 30.23 1024 5 8 N/A
2:29 am 02:29 Cloudy with Mist and Fog 34 1.1 34 1.1 100 100 S 3 6 30.24 1024 3 4 N/A
2:46 am 02:46 Cloudy with Mist and Fog 34 1.1 34 1.1 100 100 N N/A 30.24 1024 3 5 N/A
2:53 am 02:53 Cloudy with Mist and Fog 35 1.7 35 1.7 100 100 N N/A 30.22 1023 3 5 N/A
3:23 am 03:23 Cloudy with Mist and Fog 35 1.7 34 1.1 96 96 N N/A 30.21 1023 3 5 N/A
3:53 am 03:53 Cloudy with Mist and Fog 35 1.7 35 1.7 100 100 N N/A 30.21 1023 3 5 N/A
4:53 am 04:53 Cloudy with Mist and Fog 36 2.2 35 1.7 97 97 N N/A 30.21 1023 4 6 N/A
5:53 am 05:53 Cloudy with Light Rain 36 2.2 36 2.2 100 100 N N/A 30.20 1023 3 5 N/A
6:53 am 06:53 Cloudy with Mist and Fog 37 2.8 36 2.2 96 96 N N/A 30.19 1022 4 6 N/A
7:53 am 07:53 Cloudy with Mist and Fog 38 3.3 37 2.8 97 97 N N/A 30.19 1023 5 8 N/A
8:53 am 08:53 Cloudy with Mist and Fog 40 4.4 38 3.3 93 93 N N/A 30.19 1022 6 10 N/A
9:53 am 09:53 Mostly Cloudy 43 6.1 41 5 93 93 W 3 6 30.18 1022 8 13 N/A
10:53 am 10:53 Mostly Cloudy 46 7.8 42 5.6 86 86 WSW 5 7 30.17 1022 10 16 N/A
11:53 am 11:53 Mostly Sunny 56 13.3 48 8.9 75 75 S 10 17 30.13 1020 10 16 N/A
12:53 pm 12:53 Mostly Cloudy 61 16.1 51 10.6 70 70 S 10 17 30.08 1019 10 16 N/A
1:53 pm 13:53 Cloudy 64 17.8 53 11.7 68 68 SSW 16 26 30.04 1017 10 16 N/A
2:00 pm 14:00 Cloudy 64 17.8 53 11.7 68 68 SSW 18 30 30.00 1016 10 16 N/A
2:53 pm 14:53 Cloudy 61 16.1 52 11.1 72 72 WSW 16 26 30.04 1017 10 16 N/A
3:53 pm 15:53 Cloudy 60 15.6 52 11.1 75 75 SW 9 15 30.04 1017 10 16 N/A
4:53 pm 16:53 Mostly Cloudy 58 14.4 51 10.6 78 78 SSW 6 9 30.04 1017 10 16 N/A
5:53 pm 17:53 Cloudy 51 10.6 49 9.4 92 92 N N/A 30.05 1018 10 16 N/A
6:53 pm 18:53 Cloudy 50 10 48 8.9 93 93 N N/A 30.05 1018 10 16 N/A
7:53 pm 19:53 Cloudy 52 11.1 49 9.4 89 89 N N/A 30.04 1017 10 16 N/A
8:53 pm 20:53 Cloudy 60 15.6 51 10.6 72 72 S 16 26 30.04 1017 10 16 N/A
9:53 pm 21:53 Mostly Clear 60 15.6 51 10.6 72 72 S 12 19 30.04 1017 10 16 N/A
10:53 pm 22:53 Cloudy 61 16.1 51 10.6 70 70 S 12 19 30.03 1017 10 16 N/A
11:53 pm 23:53 Cloudy 61 16.1 50 10 67 67 S 15 24 30.03 1017 10 16 N/A

Powered by AerisWeather